This is the latest recevied weather packets stored in our database for station/object AD8BV. If no packets are shown the sender has not sent any weather packets the latest 10 day(s).
| Time | Temp. | Humidity | Pressure | Rain* | Wind** | Luminosity | Snow |
|---|---|---|---|---|---|---|---|
| 1777940449 | 20.56° C | 64% | 1001 hPa | 0 mm | - | 23 W/m² | - |
| 1777940146 | 20° C | 65% | 1000.9 hPa | 0 mm | - | 14 W/m² | - |
| 1777939843 | 20.56° C | 64% | 1000.8 hPa | 0 mm | - | 8 W/m² | - |
| 1777939541 | 20° C | 64% | 1000.6 hPa | 0 mm | - | 16 W/m² | - |
| 1777939238 | 20.56° C | 64% | 1000.5 hPa | 0 mm | - | 19 W/m² | - |
| 1777938935 | 20.56° C | 64% | 1000.5 hPa | 0 mm | - | 19 W/m² | - |
| 1777938631 | 20.56° C | 64% | 1000.6 hPa | 0 mm | - | 37 W/m² | - |
| 1777938328 | 20.56° C | 64% | 1000.5 hPa | 0 mm | - | 23 W/m² | - |
| 1777938025 | 20.56° C | 63% | 1000.5 hPa | 0 mm | - | 25 W/m² | - |
| 1777937721 | 21.11° C | 63% | 1000.8 hPa | 0 mm | - | 42 W/m² | - |
| 1777937418 | 21.11° C | 61% | 1000.4 hPa | 0 mm | - | 54 W/m² | - |
| 1777937115 | 21.11° C | 60% | 1000.4 hPa | 0 mm | - | 35 W/m² | - |
| 1777936813 | 21.67° C | 58% | 1000.5 hPa | 0 mm | - | 31 W/m² | - |
| 1777936509 | 21.67° C | 57% | 1000.9 hPa | 0 mm | - | 33 W/m² | - |
| 1777936205 | 22.22° C | 54% | 1000.8 hPa | 0 mm | - | 46 W/m² | - |
| 1777935901 | 22.78° C | 55% | 1000.5 hPa | 0 mm | - | 42 W/m² | - |
| 1777935601 | 23.33° C | 53% | 1000.6 hPa | 0 mm | - | 30 W/m² | - |
| 1777935297 | 23.89° C | 52% | 1000.5 hPa | 0 mm | - | 34 W/m² | - |
| 1777934994 | 23.89° C | 53% | 1000.3 hPa | 0 mm | - | 117 W/m² | - |
| 1777934690 | 23.33° C | 52% | 1000.4 hPa | 0 mm | - | 90 W/m² | - |
| 1777934388 | 23.33° C | 52% | 1000.3 hPa | 0 mm | - | 58 W/m² | - |
| 1777934084 | 23.89° C | 50% | 1000.6 hPa | 0 mm | - | 69 W/m² | - |
| 1777933779 | 23.89° C | 50% | 1000.5 hPa | 0 mm | - | 91 W/m² | - |
| 1777933477 | 23.33° C | 52% | 1000.6 hPa | 0 mm | - | 108 W/m² | - |
| 1777933175 | 23.89° C | 51% | 1000.3 hPa | 0 mm | - | 67 W/m² | - |
* Rain latest hour (hover to see other rain measurements)
** Current wind speed in m/s (hover to see current wind gust speed)